[[{"header":{"parameterUnit":"m.s-1","parameterCategory":1,"la1":30.2991,"la2":30.254,"lo1":-89.0895,"lo2":-89.0444,"dy":0.0017,"dx":0.0017,"nx":28,"ny":28,"refTime":"2025-08-05T03:00:00:Z","depth":0,"parameterNumber":2,"parameterNumberName":"U-component_of_WINDS"},"data":[0,0,0,0,0,0,0,0,0,0,0,0,0,0,0,0,0,0,0,0,0,0,0,0,0,0,0,0,0,0,0,0,0,0,0,0,0,0,0,0,0,0,0,0,0,0,0,0,0,0,0,0,0,0,0,0,0,0,1.4827,1.4827,0,1.4895,1.4896,1.4897,1.485,1.4848,1.4846,1.4844,1.4919,1.4923,1.4927,0,0,0,0,0,0,0,0,0,0,0,0,0,1.466,1.4663,1.4827,1.4827,1.4828,1.4895,1.4896,1.4897,1.4851,1.4848,1.4845,1.4843,1.4918,1.4923,1.4928,0,0,0,0,0,0,0,0,0,0,0,0,0,1.4731,1.4664,1.4826,1.4813,1.4812,1.4895,1.4896,1.4897,1.4851,1.4848,1.4845,1.4842,1.4917,1.4922,1.4928,1.5029,0,0,1.4947,1.4949,0,0,0,0,0,0,0,0,1.4727,1.4737,1.4814,1.4814,1.4814,1.4861,1.4865,1.4942,1.4852,1.4837,1.4844,1.484,1.4903,1.491,1.493,1.5033,1.5036,1.4947,1.4951,1.4953,1.4955,0,0,0,0,0,0,0,1.4722,1.4734,1.4854,1.4815,1.4815,1.4805,1.4812,1.4879,1.4887,1.4838,1.4834,1.4843,1.4902,1.4924,1.4931,1.5037,1.4947,1.4952,1.4956,1.4958,1.5228,1.5231,0,0,0,0,0,0,1.4718,1.473,1.4852,1.4856,1.4761,1.4811,1.4818,1.4849,1.4886,1.4889,1.4846,1.4841,1.4916,1.4924,1.4934,1.5055,1.4953,1.4959,1.4962,1.5224,1.5229,1.5232,0,0,0,0,0,0,1.4714,1.4729,1.4849,1.4792,1.4807,1.4817,1.4852,1.4852,1.4874,1.4892,1.4894,1.4866,1.4913,1.4925,1.5006,1.5057,1.4962,1.4967,1.522,1.5226,1.523,1.5298,0,0,0,0,0,0,1.471,1.4728,1.4765,1.4793,1.481,1.4918,1.4855,1.4856,1.4884,1.4878,1.4912,1.4915,1.4912,1.4997,1.5012,1.5064,1.4972,1.5215,1.5222,1.5229,1.5292,1.5305,1.5317,0,0,0,0,0,1.4704,1.4783,1.4767,1.4782,1.4856,1.4921,1.4931,1.4925,1.4888,1.4927,1.4938,1.4914,1.5049,1.5006,1.5022,1.5076,1.5212,1.522,1.5228,1.5286,1.5303,1.5317,0,0,0,0,0,0,1.4762,1.4786,1.477,1.4859,1.4888,1.4913,1.4962,1.4943,1.4984,1.4977,1.4969,1.4977,1.5061,1.5077,1.5028,1.5177,1.5125,1.5137,1.5163,1.5179,1.5192,1.5187,1.4977,0,0,0,0,0,1.4785,1.4834,1.4853,1.4931,1.4946,1.4951,1.498,1.4972,1.5003,1.5015,1.5033,1.5065,1.5115,1.5148,1.5195,1.5293,1.5301,1.5339,1.5352,1.5362,1.5372,1.5427,1.5444,1.5259,1.5259,1.5258,0,0,1.4834,1.4853,1.4885,1.4943,1.4965,1.5017,1.4962,1.502,1.506,1.5025,1.5101,1.5115,1.5151,1.5241,1.5282,1.5257,1.5425,1.5372,1.538,1.5385,1.5437,1.5454,1.547,1.5264,1.5263,1.5262,0,0,1.4949,1.4968,1.5035,1.5058,1.5091,1.5094,1.511,1.5138,1.5145,1.5222,1.5197,1.5244,1.533,1.5356,1.5381,1.5507,1.5486,1.5523,1.559,1.5643,1.5657,1.567,1.5716,1.5733,1.5533,1.5533,1.5533,0,1.5006,1.5083,1.5072,1.5132,1.5159,1.5128,1.5196,1.522,1.5267,1.5287,1.5258,1.5365,1.5386,1.5483,1.5513,1.5534,1.5554,1.5519,1.5656,1.5669,1.5681,1.5725,1.5742,1.5537,1.5537,1.5536,1.5536,0,1.5151,1.5205,1.5255,1.53,1.5333,1.5397,1.5398,1.5432,1.5422,1.5429,1.5508,1.5533,1.5584,1.5606,1.5598,1.5702,1.5685,1.5656,1.5605,1.5703,1.5744,1.5761,1.5543,1.5542,1.5541,1.5539,0,0,1.5306,1.5344,1.5362,1.5383,1.5417,1.5459,1.5523,1.5571,1.5602,1.5636,1.5689,1.5763,1.5736,1.5764,1.5758,1.5804,1.5904,1.577,1.577,1.5794,1.6022,1.6044,1.6064,1.589,1.5893,1.5895,1.6019,0,1.5424,1.5532,1.5525,1.5628,1.5678,1.5649,1.5705,1.5733,1.5741,1.5786,1.5795,1.5848,1.5808,1.5825,1.5869,1.5882,1.5949,1.5873,1.5942,1.5944,1.5934,1.6085,1.6109,1.6224,1.6035,1.6038,1.604,0,1.5576,1.5613,1.5721,1.5748,1.5769,1.5818,1.5863,1.5906,1.5938,1.594,1.5972,1.5958,1.6024,1.597,1.6061,1.6009,1.6037,1.6048,1.6052,1.6059,1.5999,1.6097,1.6261,1.6279,1.6065,1.6063,1.6061,0,1.5679,1.5756,1.5831,1.5849,1.5882,1.5918,1.5934,1.5962,1.5992,1.6032,1.6051,1.6099,1.6125,1.6163,1.6163,1.6123,1.6256,1.6201,1.6261,1.6262,1.6291,1.629,1.6463,1.6308,1.6308,1.6307,1.6307,0,1.5811,1.5879,1.5877,1.5923,1.5998,1.599,1.6065,1.6077,1.6103,1.6152,1.613,1.6177,1.6174,1.6222,1.6223,1.6299,1.6311,1.6317,1.6316,1.6319,1.6319,1.6338,1.633,1.6312,1.6311,1.631,1.6309,0,1.5939,1.5941,1.602,1.6045,1.6053,1.6107,1.6129,1.6174,1.618,1.6242,1.6257,1.6267,1.6322,1.6326,1.639,1.6391,1.6484,1.6474,1.6473,1.6471,1.6532,1.6526,1.6724,1.675,1.6577,1.6579,1.658,0,1.6024,1.6075,1.6105,1.6135,1.6153,1.6203,1.6233,1.6227,1.626,1.63,1.634,1.6393,1.6435,1.6526,1.654,1.659,1.6582,1.6648,1.6589,1.6591,1.6584,1.6582,1.6587,1.666,1.6661,1.6663,1.6664,0,1.6176,1.6174,1.6217,1.6261,1.6298,1.6333,1.6365,1.6392,1.639,1.6428,1.6484,1.6516,1.6582,1.6635,1.6684,1.6702,1.6684,1.6682,1.6699,1.6703,1.6701,1.6704,1.6505,1.6678,1.6677,1.6676,1.6675,1.6674,1.6285,1.6329,1.6357,1.6407,1.643,1.6461,1.6504,1.6515,1.6561,1.6613,1.6607,1.6669,1.6701,1.6763,1.6785,1.6835,1.6813,1.6837,1.6843,1.685,1.6856,1.6692,1.6844,1.6844,1.6843,1.6843,1.6843,0,1.6436,1.6452,1.6498,1.6543,1.6583,1.656,1.6595,1.663,1.6685,1.6715,1.6756,1.6821,1.6873,1.6891,1.6942,1.6979,1.6972,1.6993,1.6991,1.6995,1.6873,1.6854,1.6997,1.6997,1.6997,1.6997,1.6997,1.6997,1.6519,1.6593,1.6595,1.668,1.6697,1.6756,1.6778,1.6807,1.6831,1.6904,1.6947,1.6957,1.6984,1.7036,1.7084,1.7088,1.7108,1.7133,1.7134,1.7019,1.7004,1.6989,1.6971,1.7137,1.7137,1.7252,1.7253,1.7254]},{"header":{"parameterUnit":"m.s-1","parameterCategory":1,"la1":30.2991,"la2":30.254,"lo1":-89.0895,"lo2":-89.0444,"dy":0.0017,"dx":0.0017,"nx":28,"ny":28,"refTime":"2025-08-05T03:00:00:Z","depth":0,"parameterNumber":3,"parameterNumberName":"V-component_of_WINDS"},"data":[0,0,0,0,0,0,0,0,0,0,0,0,0,0,0,0,0,0,0,0,0,0,0,0,0,0,0,0,0,0,0,0,0,0,0,0,0,0,0,0,0,0,0,0,0,0,0,0,0,0,0,0,0,0,0,0,0,0,1.9391,1.9391,0,1.9361,1.9361,1.936,1.9354,1.9354,1.9354,1.9354,1.9319,1.9318,1.9317,0,0,0,0,0,0,0,0,0,0,0,0,0,1.9439,1.9439,1.9391,1.9391,1.939,1.9361,1.9361,1.936,1.9354,1.9354,1.9354,1.9355,1.9319,1.9318,1.9317,0,0,0,0,0,0,0,0,0,0,0,0,0,1.9415,1.9438,1.9391,1.9384,1.9383,1.9361,1.9361,1.936,1.9354,1.9354,1.9354,1.9355,1.932,1.9318,1.9316,1.9299,0,0,1.9311,1.931,0,0,0,0,0,0,0,0,1.9416,1.9413,1.9385,1.9384,1.9383,1.9362,1.9365,1.9339,1.9354,1.9365,1.9354,1.9355,1.9333,1.933,1.9323,1.9297,1.9295,1.9311,1.931,1.9309,1.9309,0,0,0,0,0,0,0,1.9418,1.9414,1.9379,1.9385,1.9384,1.9381,1.9378,1.936,1.9347,1.9364,1.9363,1.936,1.9332,1.9325,1.9322,1.9295,1.9311,1.9309,1.9308,1.9308,1.9253,1.9253,0,0,0,0,0,0,1.9421,1.9416,1.938,1.9378,1.9401,1.938,1.9376,1.9368,1.9347,1.9344,1.936,1.936,1.9328,1.9324,1.9321,1.9299,1.9309,1.9307,1.9306,1.9254,1.9253,1.9253,0,0,0,0,0,0,1.9422,1.9418,1.9381,1.9397,1.9392,1.9378,1.9369,1.9367,1.936,1.9344,1.9341,1.9355,1.9328,1.9323,1.9305,1.9298,1.9307,1.9305,1.9254,1.9254,1.9253,1.9256,0,0,0,0,0,0,1.9424,1.9419,1.9413,1.9397,1.9391,1.9367,1.9369,1.9366,1.9358,1.9358,1.9339,1.9336,1.9328,1.9307,1.9303,1.9296,1.9304,1.9255,1.9254,1.9253,1.9256,1.9256,1.9255,0,0,0,0,0,1.9426,1.9413,1.9412,1.9408,1.9383,1.9366,1.9363,1.9355,1.9357,1.9351,1.934,1.9337,1.93,1.9306,1.9301,1.9293,1.9255,1.9254,1.9253,1.9257,1.9256,1.9255,0,0,0,0,0,0,1.9427,1.9411,1.941,1.9392,1.9381,1.9365,1.9356,1.9354,1.934,1.934,1.9329,1.9325,1.9307,1.9298,1.9305,1.9275,1.9277,1.9275,1.9282,1.9281,1.928,1.9282,1.9302,0,0,0,0,0,1.9426,1.9414,1.94,1.9386,1.9381,1.937,1.9362,1.9357,1.9344,1.9339,1.9327,1.9313,1.9299,1.9289,1.9275,1.9255,1.9251,1.9247,1.9247,1.9246,1.9244,1.9234,1.9232,1.925,1.925,1.925,0,0,1.9422,1.9412,1.9405,1.9386,1.9377,1.9365,1.9366,1.9352,1.9342,1.9336,1.9318,1.9309,1.9293,1.9275,1.9266,1.9266,1.9239,1.9245,1.9245,1.9243,1.9233,1.9231,1.923,1.9249,1.925,1.925,0,0,1.9409,1.94,1.9388,1.9379,1.9366,1.9358,1.9356,1.9341,1.9335,1.9317,1.9313,1.93,1.9275,1.9264,1.9256,1.924,1.9236,1.9236,1.9231,1.9221,1.922,1.9218,1.9213,1.9211,1.9234,1.9234,1.9234,0,1.9405,1.9388,1.9381,1.9369,1.9361,1.9357,1.9344,1.9335,1.9316,1.931,1.9312,1.9281,1.927,1.9249,1.9246,1.9238,1.9234,1.9237,1.9221,1.9219,1.9218,1.9213,1.9211,1.9234,1.9234,1.9234,1.9234,0,1.9384,1.9372,1.9364,1.9348,1.9339,1.9326,1.9317,1.9309,1.9305,1.9298,1.928,1.9267,1.925,1.9244,1.924,1.9223,1.9224,1.9223,1.9225,1.9216,1.9211,1.9209,1.9234,1.9234,1.9234,1.9234,0,0,1.937,1.9353,1.935,1.9343,1.9329,1.9318,1.9305,1.9291,1.9284,1.9271,1.926,1.924,1.924,1.9229,1.9223,1.9215,1.9204,1.9215,1.9215,1.9213,1.9184,1.9185,1.9183,1.9201,1.9201,1.9201,1.9186,0,1.9355,1.9333,1.9328,1.9309,1.9298,1.9294,1.9283,1.9272,1.9265,1.9253,1.9245,1.9231,1.9232,1.9226,1.9217,1.9207,1.9198,1.9208,1.919,1.9189,1.9194,1.918,1.918,1.9167,1.9184,1.9183,1.9183,0,1.9335,1.9324,1.9305,1.9293,1.9288,1.9278,1.9264,1.9254,1.9241,1.9237,1.9227,1.9222,1.9207,1.9211,1.9191,1.9198,1.919,1.9184,1.9183,1.9181,1.9185,1.9177,1.9162,1.916,1.918,1.918,1.918,0,1.9326,1.9307,1.9293,1.9288,1.9273,1.9266,1.926,1.9248,1.924,1.9228,1.9223,1.9208,1.92,1.9189,1.918,1.9184,1.9161,1.9163,1.9156,1.9156,1.915,1.9151,1.9134,1.9146,1.9146,1.9146,1.9146,0,1.931,1.9298,1.929,1.9281,1.9268,1.9261,1.9248,1.9241,1.9231,1.922,1.9215,1.9205,1.9194,1.9182,1.9175,1.916,1.9156,1.9151,1.9149,1.9152,1.9152,1.9146,1.9146,1.9145,1.9146,1.9146,1.9146,0,1.9298,1.9292,1.9277,1.9265,1.9262,1.9253,1.9242,1.9233,1.9227,1.9213,1.9209,1.9199,1.9185,1.9175,1.9156,1.9152,1.9135,1.9133,1.9139,1.9138,1.9131,1.9132,1.911,1.9106,1.9121,1.9121,1.912,0,1.9288,1.9279,1.9268,1.9261,1.9255,1.9244,1.9237,1.923,1.9222,1.9208,1.9201,1.9187,1.9175,1.9153,1.9142,1.9128,1.9126,1.9119,1.9124,1.9127,1.9126,1.9127,1.9126,1.9118,1.9118,1.9118,1.9118,0,1.9271,1.9269,1.9259,1.9248,1.924,1.9231,1.9221,1.9216,1.9207,1.9199,1.9185,1.9177,1.9159,1.9145,1.913,1.9122,1.9118,1.9117,1.9115,1.9116,1.9121,1.9118,1.9137,1.9117,1.9117,1.9118,1.9118,1.9118,1.926,1.9252,1.9243,1.9232,1.9225,1.9217,1.9208,1.9202,1.9191,1.9177,1.9174,1.916,1.9148,1.9128,1.912,1.9108,1.9109,1.9105,1.9104,1.9103,1.9103,1.9123,1.9105,1.9105,1.9105,1.9105,1.9105,0,1.9243,1.9237,1.9228,1.9216,1.9207,1.9207,1.9197,1.9189,1.9178,1.9168,1.9157,1.9142,1.9129,1.9118,1.9105,1.9097,1.9095,1.9094,1.9094,1.9092,1.9104,1.9107,1.9096,1.9096,1.9096,1.9096,1.9096,1.9096,1.9233,1.922,1.9217,1.9201,1.9195,1.9182,1.9177,1.9169,1.9161,1.9145,1.9135,1.9129,1.9119,1.9104,1.9092,1.9089,1.9084,1.9083,1.908,1.909,1.9091,1.9092,1.9096,1.9082,1.9082,1.9069,1.9069,1.9069]}]]